DEEEE EDXW-EDDH

Flight info

Callsign DEEEE
Flight time N/A
Altitude 7000
Route OLDIP1B OLDIP DCT BADOS DCT OMWEG/N0176F080 DCT RIBSO RIBSO3S
Aircraft BE36/L-BDFGLORY/S

Departure

Time 2026-04-22 12:28
Airport Westerland Sylt Airport (EDXW)

Arrival

Time N/A
Airport Hamburg Helmut Schmidt Airport (EDDH)
Time Latitude Longitude Altitude Speed Heading
2026-04-22 12:14 54.91251 8.32516 19 ft 0 kts 243°
2026-04-22 12:19 54.91243 8.32505 19 ft 1 kts 180°
2026-04-22 12:20 54.91233 8.32551 19 ft 5 kts 100°
2026-04-22 12:20 54.91231 8.32567 19 ft 0 kts 114°
2026-04-22 12:20 54.91231 8.32568 19 ft 1 kts 116°
2026-04-22 12:20 54.91214 8.32608 19 ft 9 kts 133°
2026-04-22 12:21 54.91158 8.32712 19 ft 15 kts 128°
2026-04-22 12:21 54.91079 8.32866 24 ft 17 kts 128°
2026-04-22 12:21 54.90985 8.33049 21 ft 22 kts 133°
2026-04-22 12:21 54.90862 8.33185 23 ft 20 kts 159°
2026-04-22 12:22 54.90750 8.33227 28 ft 14 kts 175°
2026-04-22 12:22 54.90665 8.33233 28 ft 12 kts 179°
2026-04-22 12:22 54.90578 8.33242 26 ft 13 kts 175°
2026-04-22 12:22 54.90488 8.33275 26 ft 13 kts 158°
2026-04-22 12:23 54.90407 8.33347 25 ft 13 kts 147°
2026-04-22 12:23 54.90338 8.33452 24 ft 13 kts 131°
2026-04-22 12:23 54.90288 8.33587 23 ft 13 kts 115°
2026-04-22 12:23 54.90260 8.33738 23 ft 13 kts 99°
2026-04-22 12:24 54.90247 8.33892 23 ft 13 kts 97°
2026-04-22 12:24 54.90237 8.34038 23 ft 11 kts 94°
2026-04-22 12:24 54.90236 8.34153 24 ft 8 kts 84°
2026-04-22 12:24 54.90247 8.34247 24 ft 7 kts 75°
2026-04-22 12:25 54.90263 8.34327 27 ft 7 kts 65°
2026-04-22 12:25 54.90291 8.34419 26 ft 11 kts 60°
2026-04-22 12:25 54.90333 8.34517 29 ft 10 kts 45°
2026-04-22 12:25 54.90392 8.34612 31 ft 13 kts 41°
2026-04-22 12:26 54.90463 8.34725 30 ft 12 kts 42°
2026-04-22 12:26 54.90500 8.34785 31 ft 0 kts 43°
2026-04-22 12:27 54.90539 8.34850 32 ft 12 kts 43°
2026-04-22 12:27 54.90596 8.34928 32 ft 10 kts
2026-04-22 12:27 54.90625 8.34909 31 ft 1 kts 324°
2026-04-22 12:27 54.90852 8.34631 40 ft 73 kts 325°
2026-04-22 12:28 54.91339 8.33983 197 ft 101 kts 320°
2026-04-22 12:28 54.91939 8.33153 379 ft 116 kts 326°
2026-04-22 12:28 54.92642 8.32335 566 ft 131 kts 326°
2026-04-22 12:28 54.93436 8.31397 766 ft 144 kts 326°
2026-04-22 12:29 54.94123 8.30103 963 ft 151 kts 292°
2026-04-22 12:29 54.94016 8.28294 1143 ft 161 kts 245°
2026-04-22 12:29 54.93092 8.27074 1149 ft 179 kts 200°
2026-04-22 12:29 54.91826 8.26924 1157 ft 183 kts 187°
2026-04-22 12:30 54.89348 8.26066 1151 ft 184 kts 183°
2026-04-22 12:30 54.88059 8.26024 1113 ft 187 kts 186°
2026-04-22 12:30 54.86739 8.25920 980 ft 192 kts 186°
2026-04-22 12:31 54.85452 8.25836 843 ft 182 kts 185°
2026-04-22 12:31 54.84228 8.25766 800 ft 171 kts 185°
2026-04-22 12:31 54.83060 8.25694 791 ft 164 kts 186°
2026-04-22 12:31 54.81930 8.25624 793 ft 161 kts 186°
2026-04-22 12:32 54.80815 8.25556 804 ft 160 kts 185°
2026-04-22 12:32 54.78593 8.25419 795 ft 159 kts 186°
2026-04-22 12:32 54.77503 8.25353 798 ft 159 kts 186°
2026-04-22 12:33 54.76379 8.25285 795 ft 160 kts 185°
2026-04-22 12:33 54.75291 8.25382 797 ft 160 kts 166°
2026-04-22 12:33 54.74317 8.26318 796 ft 161 kts 137°
2026-04-22 12:33 54.73689 8.27878 798 ft 158 kts 111°
2026-04-22 12:34 54.73216 8.29591 796 ft 158 kts 113°
2026-04-22 12:34 54.72735 8.31301 799 ft 159 kts 112°
2026-04-22 12:34 54.72253 8.33027 803 ft 160 kts 113°
2026-04-22 12:34 54.71768 8.34768 805 ft 160 kts 113°
2026-04-22 12:35 54.71283 8.36504 803 ft 160 kts 112°
2026-04-22 12:35 54.70798 8.38236 804 ft 159 kts 112°
2026-04-22 12:35 54.70323 8.39937 804 ft 159 kts 112°
2026-04-22 12:35 54.69839 8.41663 806 ft 160 kts 113°
2026-04-22 12:36 54.69353 8.43397 805 ft 161 kts 113°
2026-04-22 12:36 54.68863 8.45148 800 ft 161 kts 113°
2026-04-22 12:36 54.68377 8.46881 847 ft 158 kts 114°
2026-04-22 12:36 54.67903 8.48566 955 ft 154 kts 113°
2026-04-22 12:37 54.67439 8.50220 1050 ft 151 kts 112°
2026-04-22 12:37 54.66992 8.51808 1149 ft 147 kts 113°
2026-04-22 12:37 54.66542 8.53404 1249 ft 150 kts 112°
2026-04-22 12:37 54.66079 8.55056 1359 ft 156 kts 112°
2026-04-22 12:38 54.65597 8.56761 1473 ft 159 kts 113°
2026-04-22 12:38 54.65109 8.58489 1575 ft 160 kts 113°
2026-04-22 12:38 54.64621 8.60222 1683 ft 161 kts 113°
2026-04-22 12:38 54.64133 8.61949 1786 ft 162 kts 112°
2026-04-22 12:39 54.63636 8.63707 1897 ft 164 kts 112°
2026-04-22 12:39 54.62631 8.67259 2000 ft 168 kts 113°
2026-04-22 12:39 54.62115 8.69082 1997 ft 170 kts 113°
2026-04-22 12:40 54.61505 8.70836 2001 ft 172 kts 131°
2026-04-22 12:40 54.60652 8.72280 2002 ft 173 kts 133°
2026-04-22 12:40 54.59813 8.73771 2003 ft 173 kts 132°
2026-04-22 12:40 54.58973 8.75253 2004 ft 173 kts 132°
2026-04-22 12:41 54.58143 8.76714 2005 ft 172 kts 132°
2026-04-22 12:41 54.57291 8.78209 2005 ft 172 kts 133°
2026-04-22 12:41 54.56450 8.79679 2002 ft 172 kts 133°
2026-04-22 12:41 54.55624 8.81130 2001 ft 172 kts 133°
2026-04-22 12:42 54.54781 8.82612 2002 ft 174 kts 134°
2026-04-22 12:42 54.53928 8.84091 1999 ft 174 kts 133°
2026-04-22 12:42 54.53074 8.85586 2003 ft 174 kts 133°
2026-04-22 12:42 54.52223 8.87078 2007 ft 175 kts 133°
2026-04-22 12:43 54.51362 8.88581 1999 ft 176 kts 134°
2026-04-22 12:43 54.50483 8.90105 1985 ft 184 kts 133°
2026-04-22 12:43 54.49606 8.91641 1988 ft 179 kts 134°
2026-04-22 12:43 54.48718 8.93203 1991 ft 181 kts 133°
2026-04-22 12:44 54.47855 8.94707 1979 ft 177 kts 134°
2026-04-22 12:44 54.46996 8.96190 1985 ft 173 kts 134°
2026-04-22 12:44 54.46152 8.97659 1974 ft 172 kts 134°
2026-04-22 12:44 54.45310 8.99117 1990 ft 174 kts 135°
2026-04-22 12:45 54.44459 9.00603 1980 ft 174 kts 133°
2026-04-22 12:45 54.43608 9.02090 1984 ft 175 kts 134°
2026-04-22 12:45 54.42744 9.03579 1996 ft 178 kts 135°
2026-04-22 12:45 54.41860 9.05101 1974 ft 179 kts 133°
2026-04-22 12:46 54.41002 9.06608 1975 ft 174 kts 134°
2026-04-22 12:46 54.40143 9.08089 1986 ft 179 kts 134°
2026-04-22 12:46 54.39258 9.09629 1984 ft 182 kts 134°
2026-04-22 12:46 54.38357 9.11176 1967 ft 185 kts 133°
2026-04-22 12:47 54.37461 9.12733 1970 ft 181 kts 134°
2026-04-22 12:47 54.36494 9.14069 1989 ft 182 kts 151°
2026-04-22 12:47 54.35377 9.15141 1965 ft 182 kts 150°
2026-04-22 12:47 54.34292 9.16225 1974 ft 181 kts 150°
2026-04-22 12:48 54.33216 9.17309 1973 ft 177 kts 150°
2026-04-22 12:48 54.32152 9.18366 1988 ft 178 kts 151°
2026-04-22 12:48 54.31063 9.19464 1979 ft 182 kts 150°
2026-04-22 12:48 54.29978 9.20526 1967 ft 177 kts 150°
2026-04-22 12:49 54.28933 9.21595 1959 ft 174 kts 150°
2026-04-22 12:49 54.27963 9.22560 1969 ft 158 kts 151°
2026-04-22 12:49 54.27739 9.22782 1961 ft 161 kts 151°